Regional Weather Roundup
Issued by NWS

Home | Current Version | Previous Version | Text Only | Print | Product List | Glossary On
Versions: 1 2 3 4 5 6 7 8 9 10 11 12 13 14 15 16 17 18 19 20 21 22 23 24 25 26 27 28 29 30 31 32 33 34 35 36 37 38 39 40 41 42 43 44 45 46 47 48 49 50
000
ASUS44 KEWX 211411
RWRTX
SOUTH TEXAS REGIONAL WEATHER ROUNDUP
NATIONAL WEATHER SERVICE AUSTIN/SAN ANTONIO TX
900 AM CDT TUE APR 21 2015

NOTE: "FAIR" INDICATED FEW OR NO CLOUDS BELOW 12,000 FEET WITH NO
SIGNIFICANT WEATHER AND/OR OBSTRUCTIONS TO VISIBILITY.

* - THESE STATIONS ARE NOT NWS OR FAA STATIONS...AND ARE NOT SUBJECT
    TO NWS AND FAA QUALITY CONTROL.

TXZ171-172-183>190-211500-
TEXAS HILL COUNTRY AND EDWARDS PLATEAU

CITY           SKY/WX    TMP DP  RH WIND       PRES   REMARKS
JUNCTION       MOSUNNY   56  47  71 CALM      30.00R
*LLANO         SUNNY     59  48  67 CALM      30.06R
BURNET         SUNNY     60  45  57 E7        30.04R
*HORSESHOE BAY PTSUNNY   60  49  68 E5        30.03R
*KERRVILLE     PTSUNNY   54  51  90 CALM      30.01S
*FREDERICKSBRG MOSUNNY   55  49  81 CALM      30.01S
*ROCKSPRINGS   SUNNY     57  45  62 SE13      30.01R
*BOERNE STAGE  CLOUDY    54  48  82 CALM      30.01S
*CASTROVILLE   CLOUDY    60  51  72 CALM      30.01R
HONDO          CLOUDY    59  52  77 NE7       30.01R
*UVALDE        CLOUDY    59  50  71 E7        30.00R
DEL RIO        SUNNY     62  49  62 SE10      29.96R
LAUGHLIN AFB   SUNNY     62  51  66 SE12      29.97R
CARRIZO SPRGS  CLOUDY    59  52  77 CALM      29.97R
$$

TXZ173-191>194-202-209-217>225-228-211500-
CENTRAL AND SOUTH CENTRAL TEXAS

CITY           SKY/WX    TMP DP  RH WIND       PRES   REMARKS
GEORGETOWN     SUNNY     61  46  59 CALM      30.03R
AUSTIN/BERGSTM MOSUNNY   59  52  77 E3        30.02R
AUSTIN/MABRY   SUNNY     63  47  55 VRB3      30.03R
*AUSTIN/EXEC   SUNNY     59  50  72 E5        30.03R
*LAGO VISTA    SUNNY     61  46  57 E7        30.03R
SAN MARCOS     SUNNY     63  52  67 N5        30.02R
NEW BRAUNFELS  MOSUNNY   63  53  70 NE6       30.00R
RANDOLPH AFB   CLOUDY    62  53  72 E7        29.99F
PT SAN ANTONIO CLOUDY    62  53  72 NE6       29.97S
SAN ANTONIO    PTSUNNY   62  52  69 NE6       29.99F
STINSON FIELD  CLOUDY    63  53  70 NE3       29.98S
*PLEASANTON    PTSUNNY   62  53  73 NE3       29.99R
*LA GRANGE     SUNNY     63  56  78 CALM      30.00S
*GIDDINGS      SUNNY     63  51  66 E5        30.06R
*GONZALES      SUNNY     63  55  76 E5        30.00R
$$

TXZ163>164-176>182-195>201-210>213-226-227-235-211500-
SOUTHEAST TEXAS

CITY           SKY/WX    TMP DP  RH WIND       PRES   REMARKS
COLLEGE STN    SUNNY     63  49  60 E8        30.03R
*BRYAN         SUNNY     61  52  71 E6        30.05S
*CALDWELL      SUNNY     61  52  72 CALM      30.06S
*CROCKETT      MOSUNNY   64  52  63 E3        30.07R
*BRENHAM       SUNNY     63  54  72 E5        30.03S
HUNTSVILLE     MOSUNNY   63  51  65 E3        30.03R
CONROE         SUNNY     62  47  57 E6        30.04R
HOUSTON BUSH   MOSUNNY   66  50  56 NE9       30.02R
HOUSTON HOBBY  SUNNY     68  50  52 E10       30.01R
*HOUSTON SW AP SUNNY     73  61  65 E8        30.01S
PEARLAND       SUNNY     70  51  51 E12       30.02R
HOUSTON HOOKS  SUNNY     64  49  57 E9        30.03R
ELLINGTON FLD  MOSUNNY   68  55  64 NE6       30.02R
SUGAR LAND     SUNNY     68  51  54 E9        30.01R
*HOUSTON EXEC  SUNNY     64  54  68 E7        30.03R
*CLEVELAND MUN SUNNY     62  54  73 E5        30.03S
*WHARTON       SUNNY     66  54  65 E9        30.01S
*COLUMBUS      FAIR      64  54  68 E3        30.01S
$$

TXZ214>216-236>238-211500-
THE UPPER TEXAS COAST

CITY           SKY/WX    TMP DP  RH WIND       PRES   REMARKS
*ORANGE        SUNNY     64  46  51 NE9       30.06R
PORT ARTHUR    SUNNY     67  48  50 NE13      30.02S
GALVESTON      SUNNY     71  55  56 E15G21    29.99S
ANGLETON       SUNNY     68  56  65 MISG      29.99S
*BAY CITY      SUNNY     68  59  73 E8        29.99F
PALACIOS       SUNNY     69  58  67 NE10      29.99R
$$

TXZ229>234-239>247-211500-
TEXAS COASTAL BEND AND RIO GRANDE PLAINS

CITY           SKY/WX    TMP DP  RH WIND       PRES   REMARKS
VICTORIA       SUNNY     66  58  75 NE9       29.99F
*BEEVILLE      SUNNY     64  57  77 NE7       29.98S
ROCKPORT       MOSUNNY   73  63  70 E6        29.97S
*PORT ARANSAS  SUNNY     73  64  74 E9        29.97S
*PORT LAVACA   SUNNY     66  59  77 NE8       30.00S
*INGLESIDE     MOSUNNY   73  65  75 E7        29.96F
CORPUS CHRISTI PTSUNNY   69  62  78 NE7       29.96S
CORPUS NAS     MOSUNNY   72  66  81 E9        29.96S
*ROBSTOWN      MOSUNNY   69  62  79 MISG      29.97S
ALICE          MOSUNNY   69  59  70 NE8       29.96F
KINGSVILLE NAS PTSUNNY   67  64  90 NE8       29.95F
COTULLA        CLOUDY    64  52  64 E7        29.97R
*FAITH RANCH   CLOUDY    64  54  68 VRB7      29.97R
LAREDO         CLOUDY    64  54  70 E6        29.98R
$$

TXZ248>255-211500-
DEEP SOUTH TEXAS

CITY           SKY/WX    TMP DP  RH WIND       PRES   REMARKS
BROWNSVILLE    CLOUDY    73  67  81 NE9       29.94R
PORT ISABEL    CLOUDY    72  68  87 E8        29.94R
*SOUTH PADRE     N/A    N/A N/A N/A MISG        N/A
HARLINGEN      CLOUDY    72  69  90 E12       29.93R
*HEBBRONVILLE    N/A     62  55  77 NE3       29.97R
MCALLEN        CLOUDY    70  64  81 CALM      29.95R
*WESLACO       CLOUDY    69  66  90 E7        29.93S
FALFURRIAS     CLOUDY    63  60  92 CALM      29.94F
EDINBURG       CLOUDY    69  65  89 NE3       29.95R
*ZAPATA        CLOUDY    63  58  83 CALM      29.96R
$$

TXZ213>215-236>238-242>244-246-247-251-254-255-211500-
CMAN STATIONS

STATION/POSITION TIME  TEMP    WIND        PRES    WAVE
                       AIR SEA DIR/SP/G            HT/PER
                 (UTC) (F)     (DEG/KT/KT) (MB)    (FT/S)
$$

GMZ080-GMZ150>470-211500-
OFFSHORE BUOY REPORTS

STATION/POSITION TIME  TEMP    WIND        PRES    WAVE
                       AIR SEA DIR/SP/G            HT/PER
                 (UTC) (F)     (DEG/KT/KT) (MB)    (FT/S)
$$



USA.gov is the U.S. government's official web portal to all federal, state and local government web resources and services.